Location: Saluda
(35.2377°N, 82.3468°W)
Time: 16:46:44
(UTC+00:00)

SR - Pass Details

Date: 14 October 2022
Orbit: 577 x 874 km, 66.7° (Epoch: 05 December)

Event Time Altitude Azimuth Distance (km) Brightness Sun altitude
Rises 07:50:43 0° 343° (NNW) 3,263 - -45.4°
Reaches altitude 10° 07:53:35 10° 356° (N) 2,278 - -44.9°
Maximum altitude 07:57:56 27° 53° (NE) 1,363 - -44.1°
Drops below altitude 10° 08:01:58 10° 111° (ESE) 2,101 - -43.3°
Sets 08:04:29 0° 124° (ESE) 2,961 - -42.9°
